GFSMA_con_3kmhel_273.txt.gz
Helicity
158 148 165 150 138 262 306 181 138 126 95 95 105 93 85 63 123 165 97 4 7 86 94 80 89 79 67 81 77 73 68 65 68 69 56 45 45 45 56 60 46 29 7
36 120 174 206 176 215 354 284 189 155 92 103 102 96 94 79 111 107 160 53 11 95 83 94 98 87 70 69 76 74 72 66 61 66 64 45 54 53 65 71 47 26 6
86 128 123 165 226 277 352 382 373 198 121 99 113 84 103 86 102 160 128 100 78 135 110 92 106 102 79 59 74 72 73 69 63 63 67 49 66 62 58 60 38 15 3
24 93 148 163 235 219 355 431 260 213 101 110 90 91 77 107 109 159 187 151 115 154 157 122 105 120 98 66 60 65 66 77 64 66 65 54 54 55 53 49 26 13 13
2 24 71 180 183 204 278 441 372 437 109 67 74 92 77 74 143 153 206 169 143 133 179 127 115 112 119 72 63 53 46 61 70 68 60 44 58 60 57 38 13 20 14
23 30 40 122 208 240 196 187 428 389 280 163 42 38 74 89 72 157 179 183 155 131 166 170 157 124 149 82 76 62 34 7 50 66 41 30 52 54 49 47 30 31 15
24 35 31 93 159 237 336 212 180 378 345 166 175 51 35 43 93 60 132 175 185 140 171 200 209 196 160 84 102 78 29 5 5 25 38 33 45 52 46 47 46 30 22
52 31 27 57 113 178 214 279 244 137 236 397 63 -11 59 12 37 95 53 146 114 148 164 202 191 201 186 156 115 93 17 -5 -3 21 31 39 62 57 53 40 47 34 13
41 50 35 36 55 100 158 177 182 343 159 237 385 218 113 70 29 137 99 197 129 172 176 194 201 201 195 162 144 88 18 14 -2 1 22 32 57 48 40 20 17 33 23
11 25 31 46 19 35 104 143 122 159 205 241 237 260 231 201 133 71 107 118 127 148 145 188 202 201 199 160 139 91 43 4 12 10 19 41 33 60 48 21 15 7 27
-1 3 38 40 26 6 56 100 127 161 108 159 228 223 220 269 30 40 102 154 163 111 147 172 207 213 215 200 181 119 75 26 26 111 58 37 62 70 78 68 54 5 5
-5 -10 24 43 24 2 28 70 97 131 147 123 143 253 190 177 83 17 62 65 150 104 136 164 197 230 232 206 180 135 95 44 15 64 147 70 87 71 151 105 76 17 8
5 -7 -10 32 20 1 1 43 90 99 135 100 119 166 209 288 298 240 112 34 96 179 244 164 212 243 254 219 156 135 104 28 8 34 159 126 105 111 137 176 115 55 10
-6 5 -12 13 17 14 -14 8 55 77 99 158 145 102 181 176 106 184 61 -20 12 111 237 211 208 236 218 218 172 137 127 42 21 15 70 114 129 140 161 189 148 100 29
-3 9 -2 12 28 26 -12 -9 45 82 102 137 164 80 167 196 143 204 60 40 1 198 130 143 203 162 206 217 199 197 141 82 91 21 80 148 163 173 175 176 157 125 98
-10 6 8 3 23 24 -9 -8 48 65 104 117 129 195 149 102 168 273 104 147 13 211 166 173 175 202 201 197 215 214 192 174 150 159 169 175 181 184 185 189 165 144 126
-18 -1 10 -1 5 14 8 -22 47 67 114 135 129 159 262 210 193 138 296 128 7 134 390 266 182 152 130 212 207 212 226 251 205 208 213 199 191 191 189 192 189 157 139
-12 -8 10 -17 6 29 14 -12 43 52 101 139 150 164 235 244 202 219 261 66 77 49 -22 303 239 254 167 130 144 231 244 235 233 187 222 236 226 191 192 197 190 171 154
-9 13 -2 -15 -5 28 26 20 13 27 55 103 133 156 199 217 243 130 206 311 134 6 80 185 244 280 248 216 202 166 255 231 220 178 235 244 246 225 204 196 188 176 168
-16 6 1 -20 -14 9 7 29 24 20 37 78 114 132 145 181 193 210 166 262 158 77 59 236 55 202 198 204 217 207 243 262 239 212 182 229 209 205 222 217 194 170 170
-24 -22 -18 -23 -16 -34 -23 32 48 15 38 86 115 123 123 204 171 75 142 327 317 207 121 47 77 171 328 220 188 178 188 251 206 321 264 219 221 211 178 195 156 145 142
-31 -29 -33 -31 -19 -41 6 43 57 31 24 69 113 132 116 183 168 49 80 151 342 420 147 100 58 220 274 288 222 180 156 296 291 293 308 263 245 219 191 197 133 135 112
-38 -41 -37 -32 -27 -19 14 51 80 41 20 41 82 105 129 129 226 154 83 149 61 190 172 170 89 103 116 138 170 103 169 188 193 247 273 249 307 243 213 188 167 188 208
-57 -50 -43 -34 -49 -30 33 73 87 45 25 41 49 77 104 128 181 231 174 143 234 83 227 138 82 169 110 91 23 160 117 58 207 211 230 205 266 241 247 246 218 221 187
-54 -54 -54 -39 -34 -29 36 71 60 50 35 35 52 41 66 142 234 192 117 182 242 176 185 184 181 137 172 104 62 40 94 176 188 116 201 226 249 214 249 218 203 187 207
-55 -55 -48 -41 -24 -15 36 65 58 25 39 25 40 51 67 116 204 262 148 177 140 168 164 108 105 98 32 7 45 75 81 -1 103 224 224 214 178 214 169 167 194 196 191

GFSMA_con_3kmhel_276.txt.gz
Helicity
12 125 189 274 196 283 200 184 208 217 86 87 116 102 130 132 146 175 157 143 12 25 49 44 57 32 62 86 71 68 74 63 61 57 55 47 39 40 63 52 22 17 1
-76 32 151 227 214 174 389 271 196 232 187 130 115 110 128 135 165 169 158 130 92 126 37 50 76 47 62 85 85 75 83 74 71 68 53 51 43 40 69 52 26 13 -2
-102 7 55 188 218 198 272 194 211 247 296 208 156 105 120 137 156 148 169 195 112 126 57 40 65 84 83 93 99 91 90 88 81 71 60 53 53 58 73 50 39 14 1
-47 -18 16 63 218 211 142 248 384 231 596 239 267 174 131 150 142 122 154 194 181 198 -0 2 49 99 107 114 100 94 88 96 94 71 55 58 63 59 66 42 42 13 5
-2 -5 6 37 104 173 218 247 386 143 196 650 361 254 209 128 107 145 128 148 154 182 144 64 127 118 118 118 103 84 78 87 89 80 53 64 56 50 65 48 37 15 12
36 19 4 42 44 96 201 249 333 480 257 508 366 259 164 160 121 117 121 149 171 151 160 125 172 168 137 114 112 88 80 69 64 61 54 70 4 74 64 55 31 17 17
39 37 -0 27 37 32 137 225 167 258 587 214 306 204 178 104 24 90 115 159 146 177 180 192 213 190 159 138 126 96 85 59 46 46 53 40 25 58 67 61 40 27 26
-4 -6 16 35 36 15 78 195 205 279 146 455 435 423 86 172 136 74 111 154 183 193 201 218 202 187 186 164 144 112 71 49 38 26 19 28 16 16 72 41 41 35 25
-27 -1 10 36 43 10 9 101 176 168 281 145 252 344 234 241 244 116 112 138 128 149 135 194 200 207 208 192 184 146 98 81 47 20 26 27 11 15 65 54 39 29 27
-19 -10 14 17 25 25 22 18 106 187 200 295 464 271 423 374 264 121 169 145 132 92 82 162 174 184 223 246 182 161 106 112 82 32 44 27 29 30 55 70 29 11 15
-6 -1 7 30 21 24 36 26 55 146 163 200 290 115 78 249 255 335 199 170 133 43 91 142 188 211 239 234 220 170 140 135 95 87 64 39 36 25 34 33 19 5 7
-33 -8 1 12 25 19 27 24 37 79 161 219 225 225 66 -9 357 280 181 133 176 79 64 104 212 200 217 249 187 178 156 134 106 121 95 81 44 45 35 81 35 13 16
-10 10 -4 15 14 11 21 5 42 45 95 170 223 217 196 223 -7 106 221 132 194 111 -38 75 108 168 193 229 225 188 181 150 115 89 93 121 85 67 79 107 135 92 64
-18 3 -10 -1 17 16 -9 4 25 18 53 122 181 209 150 128 149 262 129 174 -11 92 83 45 34 125 175 200 214 228 238 180 156 100 82 124 150 113 152 146 167 153 126
-31 -6 -8 -7 -14 1 -17 29 28 34 41 92 135 183 162 144 153 152 251 158 110 124 96 83 37 66 129 152 180 220 210 148 167 186 140 120 172 152 182 176 176 187 171
-34 -19 1 2 -8 -5 -13 35 36 39 51 81 86 138 162 170 189 122 148 220 226 147 130 44 110 35 153 160 171 196 168 148 135 174 186 177 168 176 190 191 194 192 191
-39 -20 -5 10 14 12 3 11 58 51 54 78 98 122 156 194 237 228 201 174 285 149 115 82 -94 122 100 159 169 187 193 191 159 127 141 165 175 188 205 214 204 192 191
-38 -28 -9 8 20 22 6 -1 61 56 54 82 103 112 154 154 254 220 146 219 250 201 140 26 38 220 218 114 212 218 232 194 166 113 108 136 163 207 222 217 223 211 205
-34 -28 -25 -5 22 15 -3 6 26 54 51 45 83 109 144 164 194 222 188 199 190 299 117 93 23 40 134 237 127 177 193 198 187 120 96 136 188 212 231 228 199 203 210
-41 -35 -38 -33 -0 -0 -27 15 18 56 56 35 73 93 127 155 180 212 259 269 154 196 193 111 -19 109 228 226 248 164 174 201 194 171 113 130 136 178 250 244 222 198 181
-37 -37 -40 -37 -24 -12 -3 49 39 36 59 44 73 80 124 180 203 225 190 371 243 236 242 94 -67 125 279 228 188 258 185 177 176 202 181 169 157 175 167 229 193 187 165
-43 -46 -47 -41 -54 -27 63 80 63 32 51 40 66 88 128 183 205 282 276 260 289 126 166 254 103 176 162 280 145 230 259 208 200 236 167 172 201 214 196 206 158 163 148
-51 -57 -51 -45 -50 -37 47 81 94 30 28 47 42 68 116 157 192 188 280 185 141 176 82 130 257 137 77 83 165 171 232 234 188 171 201 150 180 168 178 201 173 196 217
-52 -56 -49 -44 -50 -43 18 75 78 35 42 26 31 50 86 159 204 150 216 170 23 63 229 225 184 303 297 64 55 157 185 142 178 209 163 185 211 186 209 204 174 197 200
-40 -47 -48 -43 -44 -23 13 46 47 20 44 29 27 35 63 113 166 194 82 108 26 145 114 146 280 308 222 257 207 115 137 307 213 175 215 197 205 244 281 220 213 183 204
-41 -50 -38 -35 -30 -13 16 30 35 -1 25 36 23 21 77 103 133 153 67 103 38 156 238 151 157 177 86 151 169 219 155 190 113 183 130 182 212 233 220 206 230 221 228

GFSMA_con_3kmhel_279.txt.gz
Helicity
-135 -96 -29 36 45 60 62 168 264 218 255 174 139 99 138 144 151 215 155 146 49 105 64 58 43 34 27 70 64 61 70 62 56 55 43 28 13 36 46 39 37 7 7
-81 -102 -44 5 79 95 271 330 -45 67 220 153 168 70 124 156 161 172 193 97 81 142 129 117 42 41 2 42 69 56 72 69 65 66 55 47 38 42 53 44 42 12 5
-40 -54 -47 -29 5 118 155 194 322 261 183 262 193 82 125 153 180 185 184 181 134 141 79 95 42 64 38 39 64 67 80 82 75 77 69 60 46 49 60 53 55 12 3
-18 -34 -42 -13 3 21 135 171 208 286 162 113 236 212 134 164 157 214 214 185 181 136 137 60 45 76 62 52 41 64 82 98 86 87 82 71 62 67 80 76 45 20 6
-19 -18 -31 -8 22 -11 40 119 208 235 327 236 92 442 219 169 160 228 224 192 176 221 173 85 154 101 77 64 66 81 75 89 97 87 89 85 69 58 65 59 42 24 9
-27 -23 -34 -9 13 25 16 89 198 227 170 262 263 164 180 195 196 209 175 231 191 160 170 83 127 92 101 76 90 97 86 81 79 79 82 87 58 41 66 60 49 29 11
-24 -12 -14 -1 28 42 58 37 98 242 290 155 237 162 180 305 281 186 197 213 185 159 171 142 174 118 113 110 107 104 86 84 72 75 84 83 53 70 74 69 53 33 18
-7 -21 -1 -4 22 44 68 71 76 158 250 312 206 289 8 255 386 200 167 147 159 182 176 191 94 59 57 156 134 97 71 94 82 76 88 86 75 75 84 75 49 40 27
-39 -15 -9 12 6 17 49 58 82 112 258 234 312 370 435 198 252 145 252 117 141 169 227 188 85 67 101 173 137 125 98 118 96 76 85 91 87 64 80 83 44 39 29
-63 -28 -10 -4 3 3 30 21 38 108 141 292 239 380 409 354 324 277 267 238 119 130 168 219 236 216 242 174 167 136 120 128 151 103 82 98 72 49 75 81 48 45 28
-49 -35 4 4 1 -4 8 16 33 91 73 183 184 280 203 338 547 392 177 208 152 135 168 189 211 223 215 214 177 167 148 151 147 158 106 78 48 61 80 54 58 51 38
-49 -30 -1 -12 -3 -1 -16 -17 33 51 65 95 205 243 193 107 196 309 362 335 188 210 188 146 145 188 190 208 193 178 189 171 154 172 151 101 74 63 74 96 87 68 53
-55 -40 -13 -13 -8 12 -8 -6 40 34 55 84 140 210 162 191 186 195 159 470 262 232 171 170 136 176 164 184 181 189 219 212 164 167 184 146 114 98 82 80 108 106 69
-57 -47 -42 -24 -11 -4 -13 25 23 31 50 73 117 141 214 161 77 84 14 98 344 164 181 188 129 161 158 164 166 170 250 222 200 156 169 185 154 143 120 99 119 162 118
-64 -47 -45 -33 -10 4 3 37 22 46 64 63 94 101 125 176 157 216 204 136 94 171 122 132 196 94 136 138 163 190 197 188 208 192 177 182 180 155 132 133 149 159 168
-48 -42 -37 -31 -22 6 9 35 39 52 65 48 71 84 107 124 191 151 137 184 92 35 79 132 156 112 131 50 92 149 156 183 205 221 186 196 186 174 152 148 156 171 184
-47 -46 -40 -31 -30 -18 -14 29 62 70 67 61 49 79 105 127 153 179 120 168 268 195 105 133 180 184 178 59 87 127 136 169 205 219 199 190 190 182 179 178 172 179 189
-47 -50 -46 -45 -27 -41 -36 31 74 78 71 59 41 75 97 108 141 146 142 160 141 205 159 158 96 158 166 126 79 85 126 139 161 154 180 181 177 180 180 182 193 191 201
-45 -45 -46 -46 -28 -40 -17 23 61 70 67 47 45 57 87 115 133 174 189 191 150 112 114 208 133 120 145 121 93 230 92 136 137 119 136 168 170 167 170 180 202 212 199
-47 -52 -45 -50 -50 -34 0 28 57 63 67 61 45 47 80 115 139 194 196 222 223 212 178 233 143 151 139 64 110 99 202 163 146 135 115 135 119 124 153 154 178 220 218
-47 -60 -50 -45 -52 -43 -2 37 34 54 69 78 55 40 71 120 176 192 173 201 247 190 186 225 189 96 96 26 13 46 275 201 151 176 184 176 168 161 107 124 116 160 225
-37 -49 -49 -42 -39 -47 33 53 29 31 63 69 48 47 67 116 174 227 217 209 237 166 200 188 190 189 84 91 160 90 240 232 173 154 150 138 179 181 140 133 112 143 160
3 -44 -46 -44 -39 -42 33 44 39 7 31 54 49 52 57 78 130 179 211 226 221 213 66 214 210 199 192 127 112 117 221 141 268 166 138 126 175 157 137 133 120 158 200
49 -46 -43 -42 -43 -40 21 27 25 -7 22 42 28 24 51 74 120 162 207 203 238 249 227 40 108 188 239 189 231 -9 103 198 238 163 111 139 199 169 161 127 101 145 185
79 -19 -49 -34 -38 -33 8 16 7 1 6 20 13 13 35 48 122 161 164 235 241 297 247 294 215 91 153 168 234 197 107 130 188 144 125 193 161 231 240 148 131 124 169
80 78 -41 -39 -43 -39 -7 11 4 -13 9 15 16 27 51 56 75 120 106 215 244 317 358 323 320 253 205 199 261 230 248 26 155 199 121 156 188 199 215 183 172 171 180

GFSMA_con_3kmhel_285.txt.gz
Helicity
-4 -2 -5 12 28 14 2 30 47 64 132 165 222 157 232 301 69 116 116 58 78 86 61 56 53 75 83 83 90 92 97 82 72 68 27 -9 21 21 18 5 9 15 16
12 14 23 20 37 49 33 30 48 78 75 165 109 262 175 252 320 100 118 79 74 96 90 57 69 77 66 84 85 95 96 86 72 55 21 3 31 35 34 25 10 16 12
12 27 32 38 31 52 64 48 68 61 76 103 251 35 146 227 230 118 93 94 101 99 120 58 78 92 83 92 84 87 92 83 71 56 38 33 41 53 49 37 21 20 13
10 26 33 22 37 50 48 41 52 85 93 92 85 107 -16 124 175 248 64 73 134 144 119 82 91 98 97 97 93 94 77 66 87 63 53 60 65 59 51 44 33 27 13
9 25 40 14 18 34 34 41 53 79 126 89 83 132 10 17 150 228 64 68 114 135 166 99 99 126 117 107 93 93 58 71 94 68 67 75 75 66 45 42 57 34 13
35 31 43 21 -9 5 22 41 67 96 101 84 119 107 147 -9 116 231 126 72 116 158 189 165 156 147 154 126 101 89 71 53 75 65 71 80 82 80 68 56 53 33 13
55 37 43 20 -8 0 13 46 48 132 122 113 61 105 146 175 87 138 242 80 90 141 163 297 282 148 177 134 118 84 88 58 70 66 70 91 92 95 88 61 51 32 15
55 50 38 8 -4 -4 17 35 74 105 122 123 84 104 203 108 75 117 98 163 41 150 171 194 252 222 160 160 126 94 85 67 77 87 73 102 100 101 90 70 64 43 24
51 47 34 5 -4 2 -5 43 79 90 143 142 141 109 242 264 280 88 78 121 72 127 96 141 178 208 177 152 157 139 113 100 76 103 85 103 107 99 87 80 68 45 38
50 45 34 -6 -4 1 8 44 63 53 92 144 130 164 222 266 203 328 200 150 151 95 106 154 143 187 213 187 177 160 153 148 116 103 99 92 111 98 89 86 72 49 45
44 38 31 -27 2 -1 14 48 70 58 74 97 113 169 194 220 233 299 373 391 127 210 102 151 233 242 187 201 253 196 181 172 144 122 121 84 106 101 97 94 59 58 55
52 29 18 -44 3 17 12 41 63 68 73 86 101 126 128 155 196 308 392 398 360 343 170 105 168 228 238 225 183 175 187 174 156 156 144 119 95 100 100 95 72 82 64
55 -9 -33 -63 -23 4 25 33 69 70 76 83 98 105 116 88 164 200 250 330 342 378 250 111 122 256 212 206 183 177 180 168 176 181 176 159 130 108 98 97 91 106 75
62 -54 -71 -57 -28 6 21 30 33 63 87 82 84 80 120 124 72 191 259 165 228 161 230 335 55 215 170 187 196 162 153 188 190 192 188 194 162 150 120 107 108 112 109
57 -59 -72 -49 -42 -4 21 51 51 77 88 78 55 73 53 114 86 55 218 300 228 105 126 321 96 118 166 201 211 149 108 140 172 189 195 211 189 164 155 131 125 138 150
48 -63 -71 -58 -48 -19 18 48 57 71 88 66 58 73 67 80 130 92 91 207 236 203 121 97 105 314 155 175 178 188 140 111 172 180 184 201 204 189 165 159 154 150 151
50 -65 -71 -69 -50 -19 20 40 59 72 88 86 78 70 74 90 95 141 135 115 180 139 143 142 223 313 239 128 176 133 132 159 167 171 166 195 214 215 184 172 165 166 160
51 -67 -71 -74 -52 -23 7 29 52 72 88 87 82 73 81 71 106 128 183 122 128 69 28 24 280 414 400 150 143 182 108 61 120 60 142 175 212 220 220 184 164 161 174
48 -64 -67 -68 -46 -8 9 14 29 56 68 67 63 68 71 85 87 136 148 167 160 163 73 -175 203 276 284 141 138 139 93 177 112 61 111 155 208 225 206 205 165 146 146
48 -56 -67 -68 -48 -14 -3 13 18 38 60 56 50 52 55 78 119 133 140 148 159 194 161 -29 53 185 143 308 121 178 192 184 119 93 107 119 117 163 188 195 201 164 142
52 49 -64 -70 -54 -34 -11 10 19 28 44 52 41 39 47 78 138 132 103 127 163 173 215 183 132 108 190 293 173 77 249 316 296 150 97 134 114 162 137 153 159 193 186
49 50 -55 -62 -55 -51 -1 3 22 16 26 37 40 38 47 80 137 160 134 145 137 140 168 189 180 260 181 152 123 85 94 95 210 305 78 76 129 142 148 133 93 121 154
48 49 20 -51 -54 -47 -5 -5 6 -3 18 22 27 37 58 72 121 142 124 112 116 152 165 212 217 231 259 225 215 274 122 137 172 155 159 22 57 129 151 143 125 134 156
55 58 49 -49 -52 -51 -13 -5 -10 -16 -10 7 14 24 44 82 119 132 116 115 117 140 195 193 172 201 183 221 179 250 319 206 121 134 130 192 -10 -5 134 165 95 147 163
61 54 59 38 -41 -38 -4 -5 -18 -11 -4 2 3 13 39 57 120 128 105 142 147 158 180 232 220 164 169 234 221 208 210 189 136 111 110 94 122 50 102 140 133 100 164
65 63 54 48 -6 -34 -4 1 -6 -26 4 12 16 21 59 58 87 107 80 130 170 203 218 280 287 310 283 299 214 141 225 230 175 141 200 135 113 101 238 184 185 128 163

GFSMA_con_3kmhel_291.txt.gz
Helicity
30 23 25 28 25 20 0 -6 -11 -11 -15 70 119 128 116 110 218 215 -27 205 236 60 71 110 120 124 123 131 136 145 135 124 106 96 85 67 56 42 37 35 42 44 43
50 53 51 57 63 90 48 18 3 0 3 47 134 169 101 110 87 192 39 53 356 58 56 116 118 121 120 125 139 131 131 124 107 97 82 61 51 40 46 46 39 40 33
74 64 67 75 110 70 66 56 9 -4 -10 23 116 168 124 125 59 55 172 65 124 97 69 115 119 121 122 129 141 132 127 126 109 96 75 59 47 42 46 40 33 22 31
84 68 72 89 111 56 52 53 42 28 19 37 89 173 85 124 97 -6 51 141 -24 130 102 111 127 126 136 139 137 128 117 123 116 93 78 56 50 42 43 31 21 19 31
81 84 79 99 57 45 40 39 40 10 38 48 28 -11 46 145 180 39 -86 140 -5 -4 117 108 121 142 153 147 138 116 102 115 116 92 82 58 48 43 50 32 19 14 28
98 84 71 53 42 38 35 37 28 16 24 -14 6 86 121 164 136 51 -39 31 -72 -100 181 134 158 182 159 156 139 107 99 104 108 96 79 58 46 47 53 41 26 17 26
97 58 61 58 31 22 17 18 -13 11 48 59 91 158 166 159 41 76 -36 21 18 -378 268 130 153 161 191 175 149 112 104 99 100 95 87 66 54 56 52 45 37 27 25
82 61 60 36 -26 1 8 -9 -24 14 60 81 106 211 227 224 137 87 19 -30 -73 -218 165 126 131 142 165 197 181 125 109 97 96 102 93 84 68 63 55 46 33 40 26
83 69 52 -15 -65 -30 -17 -31 -11 27 77 111 126 118 206 218 250 114 123 17 31 37 -133 93 134 182 201 168 184 171 136 120 102 102 96 105 77 68 64 58 40 46 28
71 71 23 39 -41 -33 -21 -19 11 38 49 105 120 151 189 226 102 197 223 209 84 -82 -99 -269 122 213 202 190 154 161 176 166 131 104 105 109 86 76 72 71 58 53 31
52 80 76 23 -22 -18 20 31 44 47 44 66 92 132 167 176 145 126 140 259 293 177 -8 -77 90 324 133 173 180 183 180 188 171 122 118 113 98 86 73 82 70 64 41
89 77 66 29 -25 4 35 42 44 47 39 55 53 95 115 143 174 127 145 293 249 158 80 25 162 152 163 194 204 164 206 195 197 165 129 121 117 98 82 84 79 72 62
95 60 33 22 2 16 35 41 39 34 49 51 57 82 104 104 128 99 120 260 198 174 -104 -99 114 216 227 190 220 190 197 214 209 184 155 142 134 118 103 88 87 82 76
95 62 47 17 5 20 38 43 36 24 42 41 50 63 78 123 99 106 75 268 323 162 8 -12 28 326 208 266 217 165 200 221 213 200 186 176 159 144 138 113 99 97 86
81 69 51 31 17 23 40 51 40 41 35 39 46 54 66 89 101 94 124 172 308 383 310 71 151 541 340 101 140 134 102 174 234 228 214 197 169 166 161 147 127 125 112
69 75 60 28 18 23 43 53 50 41 40 27 24 41 57 72 90 148 117 110 275 379 315 242 300 479 594 118 35 378 85 78 219 251 230 227 189 175 167 160 150 143 142
66 66 59 34 14 26 44 54 58 50 41 26 38 43 55 80 79 117 172 113 118 319 341 454 207 504 291 325 1 21 137 164 170 222 243 242 209 185 174 169 161 147 156
51 60 65 36 13 13 44 53 68 55 48 37 46 54 56 75 89 107 146 230 160 139 315 500 126 483 351 327 287 72 29 225 115 128 196 220 206 195 180 170 167 155 156
43 52 51 29 17 12 26 50 67 57 43 19 30 45 52 90 121 115 120 198 212 166 173 314 208 405 332 331 185 115 2 224 198 127 159 199 205 191 178 162 154 143 155
54 55 71 9 -3 5 22 28 48 42 27 23 22 36 31 76 120 142 134 167 210 225 182 176 265 365 274 357 134 128 290 292 304 213 243 172 144 181 183 168 160 160 141
46 62 66 66 -26 -7 36 44 33 32 22 22 23 39 30 77 128 139 133 111 176 239 261 205 259 251 321 202 174 218 305 278 376 305 189 186 178 174 179 176 141 158 154
41 39 48 62 11 -23 28 50 28 3 19 24 32 55 58 88 134 171 108 42 71 200 256 235 241 193 211 184 194 264 150 456 271 217 246 217 193 191 189 186 126 120 146
41 37 36 44 46 -20 16 37 42 -27 -5 3 14 40 72 94 137 146 104 72 77 116 176 221 225 217 196 264 297 273 243 222 439 414 241 226 210 187 184 142 121 137 126
43 43 36 36 44 -15 2 30 25 -41 -30 -19 -14 15 49 108 146 140 101 97 104 129 137 161 204 206 181 158 154 283 191 214 387 313 378 239 237 239 163 121 99 139 159
51 43 45 35 37 36 -3 23 5 -48 -36 -24 -12 6 43 73 133 143 97 130 138 161 120 165 210 266 259 223 175 109 75 151 276 251 442 324 316 309 314 230 127 127 95
62 58 51 40 44 37 -11 24 32 -31 -25 -29 -8 8 51 57 98 109 100 127 170 187 196 219 257 296 346 329 268 151 105 275 159 141 226 270 283 261 224 201 225 156 190